Year,Month,Day,Hour,Minute,Value (Times are PST for temperature in C)
2012,08,15,00,00,15.30
2012,08,15,00,01,15.30
2012,08,15,00,02,15.30
2012,08,15,00,03,15.40
2012,08,15,00,04,15.40
2012,08,15,00,05,15.40
2012,08,15,00,06,15.40
2012,08,15,00,07,15.40
2012,08,15,00,08,15.40
2012,08,15,00,09,15.40
2012,08,15,00,10,15.50
2012,08,15,00,11,15.50
2012,08,15,00,12,15.50
2012,08,15,00,13,15.50
2012,08,15,00,14,15.50
2012,08,15,00,15,15.50
2012,08,15,00,16,15.60
2012,08,15,00,17,15.60
2012,08,15,00,18,15.60
2012,08,15,00,19,15.60
2012,08,15,00,20,15.60
2012,08,15,00,21,15.70
2012,08,15,00,22,15.70
2012,08,15,00,23,15.70
2012,08,15,00,24,15.60
2012,08,15,00,25,15.50
2012,08,15,00,26,15.50
2012,08,15,00,27,15.40
2012,08,15,00,28,15.30
2012,08,15,00,29,15.30
2012,08,15,00,30,15.30
2012,08,15,00,31,15.30
2012,08,15,00,32,15.30
2012,08,15,00,33,15.30
2012,08,15,00,34,15.20
2012,08,15,00,35,15.20
2012,08,15,00,36,15.20
2012,08,15,00,37,15.20
2012,08,15,00,38,15.20
2012,08,15,00,39,15.10
2012,08,15,00,40,15.10
2012,08,15,00,41,15.10
2012,08,15,00,42,15.10
2012,08,15,00,43,15.10
2012,08,15,00,44,15.10
2012,08,15,00,45,15.10
2012,08,15,00,46,15.10
2012,08,15,00,47,15.10
2012,08,15,00,48,15.10
2012,08,15,00,49,15.00
2012,08,15,00,50,15.00
2012,08,15,00,51,15.00
2012,08,15,00,52,15.00
2012,08,15,00,53,14.90
2012,08,15,00,54,14.90
2012,08,15,00,55,14.90
2012,08,15,00,56,14.90
2012,08,15,00,57,14.90
2012,08,15,00,58,14.90
2012,08,15,00,59,14.90
2012,08,15,01,00,14.90
2012,08,15,01,01,14.90
2012,08,15,01,02,14.90
2012,08,15,01,03,14.90
2012,08,15,01,04,14.90
2012,08,15,01,05,14.90
2012,08,15,01,06,14.90
2012,08,15,01,07,14.90
2012,08,15,01,08,14.90
2012,08,15,01,09,14.90
2012,08,15,01,10,14.90
2012,08,15,01,11,14.90
2012,08,15,01,12,14.90
2012,08,15,01,13,14.90
2012,08,15,01,14,14.90
2012,08,15,01,15,14.90
2012,08,15,01,16,14.90
2012,08,15,01,17,14.90
2012,08,15,01,18,14.90
2012,08,15,01,19,14.90
2012,08,15,01,20,14.90
2012,08,15,01,21,14.90
2012,08,15,01,22,15.00
2012,08,15,01,23,15.00
2012,08,15,01,24,15.00
2012,08,15,01,25,14.90
2012,08,15,01,26,14.90
2012,08,15,01,27,14.90
2012,08,15,01,28,14.90
2012,08,15,01,29,14.90
2012,08,15,01,30,14.90
2012,08,15,01,31,14.90
2012,08,15,01,32,14.90
2012,08,15,01,33,14.90
2012,08,15,01,34,14.90
2012,08,15,01,35,14.90
2012,08,15,01,36,14.90
2012,08,15,01,37,14.90
2012,08,15,01,38,14.90
2012,08,15,01,39,15.00
2012,08,15,01,40,15.00
2012,08,15,01,41,15.00
2012,08,15,01,42,15.00
2012,08,15,01,43,14.90
2012,08,15,01,44,14.90
2012,08,15,01,45,14.90
2012,08,15,01,46,14.90
2012,08,15,01,47,14.90
2012,08,15,01,48,14.90
2012,08,15,01,49,14.90
2012,08,15,01,50,14.90
2012,08,15,01,51,14.90
2012,08,15,01,52,14.90
2012,08,15,01,53,14.90
2012,08,15,01,54,14.90
2012,08,15,01,55,14.90
2012,08,15,01,56,14.90
2012,08,15,01,57,14.90
2012,08,15,01,58,15.00
2012,08,15,01,59,15.00
2012,08,15,02,00,15.00
2012,08,15,02,01,15.10
2012,08,15,02,02,15.20
2012,08,15,02,03,15.20
2012,08,15,02,04,15.20
2012,08,15,02,05,15.20
2012,08,15,02,06,15.20
2012,08,15,02,07,15.20
2012,08,15,02,08,15.20
2012,08,15,02,09,15.20
2012,08,15,02,10,15.20
2012,08,15,02,11,15.30
2012,08,15,02,12,15.30
2012,08,15,02,13,15.30
2012,08,15,02,14,15.30
2012,08,15,02,15,15.30
2012,08,15,02,16,15.30
2012,08,15,02,17,15.30
2012,08,15,02,18,15.30
2012,08,15,02,19,15.30
2012,08,15,02,20,15.30
2012,08,15,02,21,15.30
2012,08,15,02,22,15.30
2012,08,15,02,23,15.30
2012,08,15,02,24,15.30
2012,08,15,02,25,15.30
2012,08,15,02,26,15.30
2012,08,15,02,27,15.30
2012,08,15,02,28,15.30
2012,08,15,02,29,15.30
2012,08,15,02,30,15.30
2012,08,15,02,31,15.30
2012,08,15,02,32,15.30
2012,08,15,02,33,15.30
2012,08,15,02,34,15.30
2012,08,15,02,35,15.30
2012,08,15,02,36,15.30
2012,08,15,02,37,15.30
2012,08,15,02,38,15.30
2012,08,15,02,39,15.30
2012,08,15,02,40,15.30
2012,08,15,02,41,15.30
2012,08,15,02,42,15.30
2012,08,15,02,43,15.30
2012,08,15,02,44,15.30
2012,08,15,02,45,15.30
2012,08,15,02,46,15.30
2012,08,15,02,47,15.30
2012,08,15,02,48,15.30
2012,08,15,02,49,15.30
2012,08,15,02,50,15.30
2012,08,15,02,51,15.30
2012,08,15,02,52,15.30
2012,08,15,02,53,15.30
2012,08,15,02,54,15.30
2012,08,15,02,55,15.30
2012,08,15,02,56,15.30
2012,08,15,02,57,15.30
2012,08,15,02,58,15.30
2012,08,15,02,59,15.30
2012,08,15,03,00,15.30
2012,08,15,03,01,15.30
2012,08,15,03,02,15.30
2012,08,15,03,03,15.30
2012,08,15,03,04,15.20
2012,08,15,03,05,15.20
2012,08,15,03,06,15.20
2012,08,15,03,07,15.20
2012,08,15,03,08,15.20
2012,08,15,03,09,15.20
2012,08,15,03,10,15.20
2012,08,15,03,11,15.20
2012,08,15,03,12,15.20
2012,08,15,03,13,15.20
2012,08,15,03,14,15.20
2012,08,15,03,15,15.20
2012,08,15,03,16,15.20
2012,08,15,03,17,15.20
2012,08,15,03,18,15.20
2012,08,15,03,19,15.20
2012,08,15,03,20,15.20
2012,08,15,03,21,15.20
2012,08,15,03,22,15.20
2012,08,15,03,23,15.20
2012,08,15,03,24,15.20
2012,08,15,03,25,15.10
2012,08,15,03,26,15.10
2012,08,15,03,27,15.10
2012,08,15,03,28,15.10
2012,08,15,03,29,15.10
2012,08,15,03,30,15.10
2012,08,15,03,31,15.10
2012,08,15,03,32,15.10
2012,08,15,03,33,15.10
2012,08,15,03,34,15.10
2012,08,15,03,35,15.10
2012,08,15,03,36,15.10
2012,08,15,03,37,15.10
2012,08,15,03,38,15.10
2012,08,15,03,39,15.00
2012,08,15,03,40,15.00
2012,08,15,03,41,15.00
2012,08,15,03,42,15.00
2012,08,15,03,43,15.00
2012,08,15,03,44,15.00
2012,08,15,03,45,15.00
2012,08,15,03,46,15.00
2012,08,15,03,47,15.10
2012,08,15,03,48,15.10
2012,08,15,03,49,15.10
2012,08,15,03,50,15.10
2012,08,15,03,51,15.10
2012,08,15,03,52,15.10
2012,08,15,03,53,15.10
2012,08,15,03,54,15.10
2012,08,15,03,55,15.10
2012,08,15,03,56,15.10
2012,08,15,03,57,15.10
2012,08,15,03,58,15.10
2012,08,15,03,59,15.10
2012,08,15,04,00,15.10
2012,08,15,04,01,15.10
2012,08,15,04,02,15.10
2012,08,15,04,03,15.10
2012,08,15,04,04,15.10
2012,08,15,04,05,15.10
2012,08,15,04,06,15.10
2012,08,15,04,07,15.10
2012,08,15,04,08,15.10
2012,08,15,04,09,15.10
2012,08,15,04,10,15.10
2012,08,15,04,11,15.10
2012,08,15,04,12,15.10
2012,08,15,04,13,15.10
2012,08,15,04,14,15.10
2012,08,15,04,15,15.10
2012,08,15,04,16,15.10
2012,08,15,04,17,15.10
2012,08,15,04,18,15.20
2012,08,15,04,19,15.20
2012,08,15,04,20,15.20
2012,08,15,04,21,15.20
2012,08,15,04,22,15.20
2012,08,15,04,23,15.20
2012,08,15,04,24,15.20
2012,08,15,04,25,15.30
2012,08,15,04,26,15.30
2012,08,15,04,27,15.30
2012,08,15,04,28,15.30
2012,08,15,04,29,15.30
2012,08,15,04,30,15.30
2012,08,15,04,31,15.30
2012,08,15,04,32,15.30
2012,08,15,04,33,15.30
2012,08,15,04,34,15.30
2012,08,15,04,35,15.30
2012,08,15,04,36,15.30
2012,08,15,04,37,15.30
2012,08,15,04,38,15.30
2012,08,15,04,39,15.30
2012,08,15,04,40,15.30
2012,08,15,04,41,15.30
2012,08,15,04,42,15.30
2012,08,15,04,43,15.30
2012,08,15,04,44,15.30
2012,08,15,04,45,15.30
2012,08,15,04,46,15.30
2012,08,15,04,47,15.30
2012,08,15,04,48,15.30
2012,08,15,04,49,15.30
2012,08,15,04,50,15.30
2012,08,15,04,51,15.30
2012,08,15,04,52,15.40
2012,08,15,04,53,15.40
2012,08,15,04,54,15.40
2012,08,15,04,55,15.40
2012,08,15,04,56,15.40
2012,08,15,04,57,15.50
2012,08,15,04,58,15.50
2012,08,15,04,59,15.50
2012,08,15,05,00,15.50
2012,08,15,05,01,15.50
2012,08,15,05,02,15.50
2012,08,15,05,03,15.50
2012,08,15,05,04,15.50
2012,08,15,05,05,15.50
2012,08,15,05,06,15.50
2012,08,15,05,07,15.50
2012,08,15,05,08,15.60
2012,08,15,05,09,15.60
2012,08,15,05,10,15.60
2012,08,15,05,11,15.60
2012,08,15,05,12,15.60
2012,08,15,05,13,15.60
2012,08,15,05,14,15.60
2012,08,15,05,15,15.60
2012,08,15,05,16,15.70
2012,08,15,05,17,15.70
2012,08,15,05,18,15.70
2012,08,15,05,19,15.60
2012,08,15,05,20,15.60
2012,08,15,05,21,15.60
2012,08,15,05,22,15.60
2012,08,15,05,23,15.60
2012,08,15,05,24,15.60
2012,08,15,05,25,15.60
2012,08,15,05,26,15.60
2012,08,15,05,27,15.60
2012,08,15,05,28,15.60
2012,08,15,05,29,15.60
2012,08,15,05,30,15.60
2012,08,15,05,31,15.70
2012,08,15,05,32,15.70
2012,08,15,05,33,15.70
2012,08,15,05,34,15.70
2012,08,15,05,35,15.70
2012,08,15,05,36,15.60
2012,08,15,05,37,15.60
2012,08,15,05,38,15.60
2012,08,15,05,39,15.60
2012,08,15,05,40,15.60
2012,08,15,05,41,15.60
2012,08,15,05,42,15.60
2012,08,15,05,43,15.60
2012,08,15,05,44,15.70
2012,08,15,05,45,15.70
2012,08,15,05,46,15.70
2012,08,15,05,47,15.70
2012,08,15,05,48,15.70
2012,08,15,05,49,15.70
2012,08,15,05,50,15.70
2012,08,15,05,51,15.70
2012,08,15,05,52,15.70
2012,08,15,05,53,15.70
2012,08,15,05,54,15.70
2012,08,15,05,55,15.70
2012,08,15,05,56,15.70
2012,08,15,05,57,15.70
2012,08,15,05,58,15.80
2012,08,15,05,59,15.80
2012,08,15,06,00,15.80
2012,08,15,06,01,15.80
2012,08,15,06,02,15.80
2012,08,15,06,03,15.80
2012,08,15,06,04,15.80
2012,08,15,06,05,15.80
2012,08,15,06,06,15.80
2012,08,15,06,07,15.80
2012,08,15,06,08,15.80
2012,08,15,06,09,15.80
2012,08,15,06,10,15.90
2012,08,15,06,11,15.90
2012,08,15,06,12,15.90
2012,08,15,06,13,15.90
2012,08,15,06,14,15.90
2012,08,15,06,15,15.90
2012,08,15,06,16,15.90
2012,08,15,06,17,15.90
2012,08,15,06,18,15.90
2012,08,15,06,19,15.90
2012,08,15,06,20,15.90
2012,08,15,06,21,15.90
2012,08,15,06,22,15.90
2012,08,15,06,23,15.80
2012,08,15,06,24,15.80
2012,08,15,06,25,15.80
2012,08,15,06,26,15.80
2012,08,15,06,27,15.80
2012,08,15,06,28,15.80
2012,08,15,06,29,15.80
2012,08,15,06,30,15.80
2012,08,15,06,31,15.80
2012,08,15,06,32,15.80
2012,08,15,06,33,15.80
2012,08,15,06,34,15.80
2012,08,15,06,35,15.80
2012,08,15,06,36,15.80
2012,08,15,06,37,15.80
2012,08,15,06,38,15.80
2012,08,15,06,39,15.80
2012,08,15,06,40,15.80
2012,08,15,06,41,15.80
2012,08,15,06,42,15.80
2012,08,15,06,43,15.80
2012,08,15,06,44,15.80
2012,08,15,06,45,15.80
2012,08,15,06,46,15.80
2012,08,15,06,47,15.80
2012,08,15,06,48,15.80
2012,08,15,06,49,15.80
2012,08,15,06,50,15.80
2012,08,15,06,51,15.80
2012,08,15,06,52,15.80
2012,08,15,06,53,15.80
2012,08,15,06,54,15.80
2012,08,15,06,55,15.80
2012,08,15,06,56,15.80
2012,08,15,06,57,15.80
2012,08,15,06,58,15.80
2012,08,15,06,59,15.80
2012,08,15,07,00,15.80
2012,08,15,07,01,15.90
2012,08,15,07,02,15.90
2012,08,15,07,03,15.90
2012,08,15,07,04,15.90
2012,08,15,07,05,16.00
2012,08,15,07,06,16.10
2012,08,15,07,07,16.10
2012,08,15,07,08,16.10
2012,08,15,07,09,16.10
2012,08,15,07,10,16.10
2012,08,15,07,11,16.10
2012,08,15,07,12,16.20
2012,08,15,07,13,16.20
2012,08,15,07,14,16.20
2012,08,15,07,15,16.30
2012,08,15,07,16,16.30
2012,08,15,07,17,16.40
2012,08,15,07,18,16.40
2012,08,15,07,19,16.40
2012,08,15,07,20,16.40
2012,08,15,07,21,16.50
2012,08,15,07,22,16.60
2012,08,15,07,23,16.60
2012,08,15,07,24,16.60
2012,08,15,07,25,16.70
2012,08,15,07,26,16.70
2012,08,15,07,27,16.80
2012,08,15,07,28,16.90
2012,08,15,07,29,16.90
2012,08,15,07,30,17.00
2012,08,15,07,31,17.00
2012,08,15,07,32,17.10
2012,08,15,07,33,17.10
2012,08,15,07,34,17.20
2012,08,15,07,35,17.20
2012,08,15,07,36,17.20
2012,08,15,07,37,17.30
2012,08,15,07,38,17.30
2012,08,15,07,39,17.30
2012,08,15,07,40,17.30
2012,08,15,07,41,17.30
2012,08,15,07,42,17.40
2012,08,15,07,43,17.50
2012,08,15,07,44,17.50
2012,08,15,07,45,17.60
2012,08,15,07,46,17.70
2012,08,15,07,47,17.70
2012,08,15,07,48,17.80
2012,08,15,07,49,17.90
2012,08,15,07,50,17.90
2012,08,15,07,51,17.90
2012,08,15,07,52,17.90
2012,08,15,07,53,17.90
2012,08,15,07,54,18.10
2012,08,15,07,55,18.10
2012,08,15,07,56,18.10
2012,08,15,07,57,18.10
2012,08,15,07,58,18.10
2012,08,15,07,59,18.20
2012,08,15,08,00,18.20
2012,08,15,08,01,18.20
2012,08,15,08,02,18.30
2012,08,15,08,03,18.40
2012,08,15,08,04,18.40
2012,08,15,08,05,18.50
2012,08,15,08,06,18.60
2012,08,15,08,07,18.70
2012,08,15,08,08,18.80
2012,08,15,08,09,18.90
2012,08,15,08,10,18.90
2012,08,15,08,11,19.00
2012,08,15,08,12,19.10
2012,08,15,08,13,19.10
2012,08,15,08,14,18.90
2012,08,15,08,15,18.90
2012,08,15,08,16,18.90
2012,08,15,08,17,18.90
2012,08,15,08,18,18.90
2012,08,15,08,19,19.00
2012,08,15,08,20,19.10
2012,08,15,08,21,19.10
2012,08,15,08,22,19.10
2012,08,15,08,23,19.20
2012,08,15,08,24,19.30
2012,08,15,08,25,19.30
2012,08,15,08,26,19.40
2012,08,15,08,27,19.50
2012,08,15,08,28,19.60
2012,08,15,08,29,19.60
2012,08,15,08,30,19.70
2012,08,15,08,31,19.80
2012,08,15,08,32,19.90
2012,08,15,08,33,20.00
2012,08,15,08,34,20.10
2012,08,15,08,35,20.20
2012,08,15,08,36,20.40
2012,08,15,08,37,20.50
2012,08,15,08,38,20.60
2012,08,15,08,39,20.70
2012,08,15,08,40,20.80
2012,08,15,08,41,20.90
2012,08,15,08,42,21.00
2012,08,15,08,43,21.10
2012,08,15,08,44,21.20
2012,08,15,08,45,21.30
2012,08,15,08,46,21.40
2012,08,15,08,47,21.50
2012,08,15,08,48,21.60
2012,08,15,08,49,21.60
2012,08,15,08,50,21.80
2012,08,15,08,51,21.90
2012,08,15,08,52,22.10
2012,08,15,08,53,22.20
2012,08,15,08,54,22.40
2012,08,15,08,55,22.50
2012,08,15,08,56,22.60
2012,08,15,08,57,22.70
2012,08,15,08,58,22.80
2012,08,15,08,59,22.90
2012,08,15,09,00,23.10
2012,08,15,09,01,23.20
2012,08,15,09,02,23.30
2012,08,15,09,03,23.40
2012,08,15,09,04,23.50
2012,08,15,09,05,23.70
2012,08,15,09,06,23.70
2012,08,15,09,07,23.80
2012,08,15,09,08,23.90
2012,08,15,09,09,23.90
2012,08,15,09,10,24.00
2012,08,15,09,11,24.10
2012,08,15,09,12,24.10
2012,08,15,09,13,24.20
2012,08,15,09,14,24.20
2012,08,15,09,15,24.40
2012,08,15,09,16,24.50
2012,08,15,09,17,24.60
2012,08,15,09,18,24.60
2012,08,15,09,19,24.70
2012,08,15,09,20,24.80
2012,08,15,09,21,24.80
2012,08,15,09,22,24.90
2012,08,15,09,23,24.90
2012,08,15,09,24,24.90
2012,08,15,09,25,24.90
2012,08,15,09,26,24.90
2012,08,15,09,27,25.00
2012,08,15,09,28,25.00
2012,08,15,09,29,25.00
2012,08,15,09,30,24.90
2012,08,15,09,31,24.90
2012,08,15,09,32,24.90
2012,08,15,09,33,24.90
2012,08,15,09,34,24.90
2012,08,15,09,35,24.90
2012,08,15,09,36,24.90
2012,08,15,09,37,24.90
2012,08,15,09,38,24.90
2012,08,15,09,39,24.90
2012,08,15,09,40,24.90
2012,08,15,09,41,24.90
2012,08,15,09,42,24.80
2012,08,15,09,43,24.80
2012,08,15,09,44,24.80
2012,08,15,09,45,24.90
2012,08,15,09,46,24.90
2012,08,15,09,47,24.90
2012,08,15,09,48,24.90
2012,08,15,09,49,25.00
2012,08,15,09,50,25.00
2012,08,15,09,51,25.00
2012,08,15,09,52,25.00
2012,08,15,09,53,25.10
2012,08,15,09,54,25.10
2012,08,15,09,55,25.20
2012,08,15,09,56,25.30
2012,08,15,09,57,25.40
2012,08,15,09,58,25.40
2012,08,15,09,59,25.40
2012,08,15,10,00,25.40
2012,08,15,10,01,25.40
2012,08,15,10,02,25.40
2012,08,15,10,03,25.40
2012,08,15,10,04,25.50
2012,08,15,10,05,25.50
2012,08,15,10,06,25.50
2012,08,15,10,07,25.50
2012,08,15,10,08,25.50
2012,08,15,10,09,25.60
2012,08,15,10,10,25.70
2012,08,15,10,11,25.80
2012,08,15,10,12,25.80
2012,08,15,10,13,25.90
2012,08,15,10,14,26.00
2012,08,15,10,15,26.00
2012,08,15,10,16,26.00
2012,08,15,10,17,26.00
2012,08,15,10,18,26.10
2012,08,15,10,19,26.10
2012,08,15,10,20,26.20
2012,08,15,10,21,26.20
2012,08,15,10,22,26.20
2012,08,15,10,23,26.20
2012,08,15,10,24,26.20
2012,08,15,10,25,26.30
2012,08,15,10,26,26.30
2012,08,15,10,27,26.30
2012,08,15,10,28,26.30
2012,08,15,10,29,26.30
2012,08,15,10,30,26.30
2012,08,15,10,31,26.30
2012,08,15,10,32,26.30
2012,08,15,10,33,26.30
2012,08,15,10,34,26.30
2012,08,15,10,35,26.30
2012,08,15,10,36,26.20
2012,08,15,10,37,26.20
2012,08,15,10,38,26.10
2012,08,15,10,39,26.10
2012,08,15,10,40,26.20
2012,08,15,10,41,26.30
2012,08,15,10,42,26.30
2012,08,15,10,43,26.30
2012,08,15,10,44,26.40
2012,08,15,10,45,26.40
2012,08,15,10,46,26.40
2012,08,15,10,47,26.40
2012,08,15,10,48,26.40
2012,08,15,10,49,26.40
2012,08,15,10,50,26.40
2012,08,15,10,51,26.40
2012,08,15,10,52,26.40
2012,08,15,10,53,26.40
2012,08,15,10,54,26.40
2012,08,15,10,55,26.40
2012,08,15,10,56,26.40
2012,08,15,10,57,26.40
2012,08,15,10,58,26.40
2012,08,15,10,59,26.50
2012,08,15,11,00,26.60
2012,08,15,11,01,26.60
2012,08,15,11,02,26.50
2012,08,15,11,03,26.50
2012,08,15,11,04,26.60
2012,08,15,11,05,26.60
2012,08,15,11,06,26.60
2012,08,15,11,07,26.60
2012,08,15,11,08,26.70
2012,08,15,11,09,26.80
2012,08,15,11,10,27.00
2012,08,15,11,11,27.10
2012,08,15,11,12,27.20
2012,08,15,11,13,27.20
2012,08,15,11,14,27.30
2012,08,15,11,15,27.30
2012,08,15,11,16,27.30
2012,08,15,11,17,27.30
2012,08,15,11,18,27.30
2012,08,15,11,19,27.30
2012,08,15,11,20,27.20
2012,08,15,11,21,27.20
2012,08,15,11,22,27.20
2012,08,15,11,23,27.20
2012,08,15,11,24,27.10
2012,08,15,11,25,27.00
2012,08,15,11,26,26.90
2012,08,15,11,27,27.00
2012,08,15,11,28,27.10
2012,08,15,11,29,27.10
2012,08,15,11,30,27.20
2012,08,15,11,31,27.30
2012,08,15,11,32,27.30
2012,08,15,11,33,27.30
2012,08,15,11,34,27.30
2012,08,15,11,35,27.30
2012,08,15,11,36,27.30
2012,08,15,11,37,27.40
2012,08,15,11,38,27.40
2012,08,15,11,39,27.40
2012,08,15,11,40,27.60
2012,08,15,11,41,27.60
2012,08,15,11,42,27.60
2012,08,15,11,43,27.50
2012,08,15,11,44,27.40
2012,08,15,11,45,27.40
2012,08,15,11,46,27.50
2012,08,15,11,47,27.60
2012,08,15,11,48,27.70
2012,08,15,11,49,27.80
2012,08,15,11,50,27.80
2012,08,15,11,51,27.80
2012,08,15,11,52,27.70
2012,08,15,11,53,27.70
2012,08,15,11,54,27.70
2012,08,15,11,55,27.70
2012,08,15,11,56,27.70
2012,08,15,11,57,27.70
2012,08,15,11,58,27.70
2012,08,15,11,59,27.60
2012,08,15,12,00,27.50
2012,08,15,12,01,27.40
2012,08,15,12,02,27.40
2012,08,15,12,03,27.30
2012,08,15,12,04,27.30
2012,08,15,12,05,27.40
2012,08,15,12,06,27.40
2012,08,15,12,07,27.60
2012,08,15,12,08,27.60
2012,08,15,12,09,27.70
2012,08,15,12,10,27.70
2012,08,15,12,11,27.70
2012,08,15,12,12,27.80
2012,08,15,12,13,28.00
2012,08,15,12,14,28.20
2012,08,15,12,15,28.30
2012,08,15,12,16,28.40
2012,08,15,12,17,28.50
2012,08,15,12,18,28.60
2012,08,15,12,19,28.50
2012,08,15,12,20,28.40
2012,08,15,12,21,28.40
2012,08,15,12,22,28.40
2012,08,15,12,23,28.40
2012,08,15,12,24,28.40
2012,08,15,12,25,28.40
2012,08,15,12,26,28.60
2012,08,15,12,27,28.60
2012,08,15,12,28,28.60
2012,08,15,12,29,28.60
2012,08,15,12,30,28.60
2012,08,15,12,31,28.60
2012,08,15,12,32,28.60
2012,08,15,12,33,28.70
2012,08,15,12,34,28.60
2012,08,15,12,35,28.60
2012,08,15,12,36,28.60
2012,08,15,12,37,28.60
2012,08,15,12,38,28.60
2012,08,15,12,39,28.60
2012,08,15,12,40,28.60
2012,08,15,12,41,28.60
2012,08,15,12,42,28.60
2012,08,15,12,43,28.60
2012,08,15,12,44,28.50
2012,08,15,12,45,28.40
2012,08,15,12,46,28.40
2012,08,15,12,47,28.40
2012,08,15,12,48,28.40
2012,08,15,12,49,28.40
2012,08,15,12,50,28.40
2012,08,15,12,51,28.40
2012,08,15,12,52,28.50
2012,08,15,12,53,28.40
2012,08,15,12,54,28.40
2012,08,15,12,55,28.40
2012,08,15,12,56,28.40
2012,08,15,12,57,28.60
2012,08,15,12,58,28.60
2012,08,15,12,59,28.60
2012,08,15,13,00,28.70
2012,08,15,13,01,28.70
2012,08,15,13,02,28.70
2012,08,15,13,03,28.70
2012,08,15,13,04,28.70
2012,08,15,13,05,28.80
2012,08,15,13,06,28.80
2012,08,15,13,07,28.90
2012,08,15,13,08,29.00
2012,08,15,13,09,29.00
2012,08,15,13,10,28.90
2012,08,15,13,11,28.90
2012,08,15,13,12,28.90
2012,08,15,13,13,28.90
2012,08,15,13,14,28.90
2012,08,15,13,15,29.00
2012,08,15,13,16,29.10
2012,08,15,13,17,29.10
2012,08,15,13,18,29.10
2012,08,15,13,19,29.10
2012,08,15,13,20,29.20
2012,08,15,13,21,29.10
2012,08,15,13,22,29.20
2012,08,15,13,23,29.20
2012,08,15,13,24,29.20
2012,08,15,13,25,29.20
2012,08,15,13,26,29.20
2012,08,15,13,27,29.20
2012,08,15,13,28,29.10
2012,08,15,13,29,29.10
2012,08,15,13,30,29.10
2012,08,15,13,31,29.10
2012,08,15,13,32,29.10
2012,08,15,13,33,29.10
2012,08,15,13,34,29.10
2012,08,15,13,35,29.10
2012,08,15,13,36,29.10
2012,08,15,13,37,29.20
2012,08,15,13,38,29.20
2012,08,15,13,39,29.30
2012,08,15,13,40,29.30
2012,08,15,13,41,29.30
2012,08,15,13,42,29.30
2012,08,15,13,43,29.40
2012,08,15,13,44,29.40
2012,08,15,13,45,29.40
2012,08,15,13,46,29.40
2012,08,15,13,47,29.50
2012,08,15,13,48,29.50
2012,08,15,13,49,29.60
2012,08,15,13,50,29.60
2012,08,15,13,51,29.60
2012,08,15,13,52,29.60
2012,08,15,13,53,29.60
2012,08,15,13,54,29.60
2012,08,15,13,55,29.60
2012,08,15,13,56,29.50
2012,08,15,13,57,29.50
2012,08,15,13,58,29.50
2012,08,15,13,59,29.50
2012,08,15,14,00,29.40
2012,08,15,14,01,29.40
2012,08,15,14,02,29.40
2012,08,15,14,03,29.50
2012,08,15,14,04,29.50
2012,08,15,14,05,29.60
2012,08,15,14,06,29.70
2012,08,15,14,07,29.70
2012,08,15,14,08,29.70
2012,08,15,14,09,29.70
2012,08,15,14,10,29.80
2012,08,15,14,11,29.80
2012,08,15,14,12,29.80
2012,08,15,14,13,29.90
2012,08,15,14,14,29.90
2012,08,15,14,15,29.90
2012,08,15,14,16,29.90
2012,08,15,14,17,30.00
2012,08,15,14,18,30.10
2012,08,15,14,19,30.20
2012,08,15,14,20,30.20
2012,08,15,14,21,30.20
2012,08,15,14,22,30.20
2012,08,15,14,23,30.10
2012,08,15,14,24,30.00
2012,08,15,14,25,29.90
2012,08,15,14,26,29.90
2012,08,15,14,27,29.80
2012,08,15,14,28,29.90
2012,08,15,14,29,29.90
2012,08,15,14,30,29.90
2012,08,15,14,31,29.90
2012,08,15,14,32,29.80
2012,08,15,14,33,29.80
2012,08,15,14,34,29.80
2012,08,15,14,35,29.70
2012,08,15,14,36,29.70
2012,08,15,14,37,29.80
2012,08,15,14,38,29.80
2012,08,15,14,39,29.80
2012,08,15,14,40,29.90
2012,08,15,14,41,29.90
2012,08,15,14,42,29.90
2012,08,15,14,43,30.00
2012,08,15,14,44,30.10
2012,08,15,14,45,30.10
2012,08,15,14,46,30.00
2012,08,15,14,47,29.90
2012,08,15,14,48,30.00
2012,08,15,14,49,29.90
2012,08,15,14,50,29.90
2012,08,15,14,51,30.00
2012,08,15,14,52,30.00
2012,08,15,14,53,30.10
2012,08,15,14,54,30.10
2012,08,15,14,55,30.10
2012,08,15,14,56,30.10
2012,08,15,14,57,30.10
2012,08,15,14,58,30.10
2012,08,15,14,59,30.20
2012,08,15,15,00,30.20
2012,08,15,15,01,30.30
2012,08,15,15,02,30.30
2012,08,15,15,03,30.30
2012,08,15,15,04,30.40
2012,08,15,15,05,30.40
2012,08,15,15,06,30.60
2012,08,15,15,07,30.40
2012,08,15,15,08,30.40
2012,08,15,15,09,30.40
2012,08,15,15,10,30.40
2012,08,15,15,11,30.50
2012,08,15,15,12,30.40
2012,08,15,15,13,30.40
2012,08,15,15,14,30.40
2012,08,15,15,15,30.40
2012,08,15,15,16,30.30
2012,08,15,15,17,30.30
2012,08,15,15,18,30.20
2012,08,15,15,19,30.20
2012,08,15,15,20,30.20
2012,08,15,15,21,30.20
2012,08,15,15,22,30.30
2012,08,15,15,23,30.30
2012,08,15,15,24,30.50
2012,08,15,15,25,30.60
2012,08,15,15,26,30.70
2012,08,15,15,27,30.80
2012,08,15,15,28,30.70
2012,08,15,15,29,30.80
2012,08,15,15,30,30.80
2012,08,15,15,31,30.90
2012,08,15,15,32,30.90
2012,08,15,15,33,31.00
2012,08,15,15,34,31.00
2012,08,15,15,35,30.90
2012,08,15,15,36,30.80
2012,08,15,15,37,30.70
2012,08,15,15,38,30.60
2012,08,15,15,39,30.60
2012,08,15,15,40,30.60
2012,08,15,15,41,30.60
2012,08,15,15,42,30.60
2012,08,15,15,43,30.70
2012,08,15,15,44,30.70
2012,08,15,15,45,30.80
2012,08,15,15,46,30.70
2012,08,15,15,47,30.60
2012,08,15,15,48,30.60
2012,08,15,15,49,30.60
2012,08,15,15,50,30.60
2012,08,15,15,51,30.60
2012,08,15,15,52,30.60
2012,08,15,15,53,30.60
2012,08,15,15,54,30.60
2012,08,15,15,55,30.60
2012,08,15,15,56,30.70
2012,08,15,15,57,30.70
2012,08,15,15,58,30.70
2012,08,15,15,59,30.80
2012,08,15,16,00,30.70
2012,08,15,16,01,30.60
2012,08,15,16,02,30.40
2012,08,15,16,03,30.40
2012,08,15,16,04,30.40
2012,08,15,16,05,30.40
2012,08,15,16,06,30.50
2012,08,15,16,07,30.60
2012,08,15,16,08,30.60
2012,08,15,16,09,30.70
2012,08,15,16,10,30.80
2012,08,15,16,11,30.80
2012,08,15,16,12,30.80
2012,08,15,16,13,30.70
2012,08,15,16,14,30.60
2012,08,15,16,15,30.70
2012,08,15,16,16,30.70
2012,08,15,16,17,30.80
2012,08,15,16,18,30.80
2012,08,15,16,19,30.90
2012,08,15,16,20,31.00
2012,08,15,16,21,31.00
2012,08,15,16,22,31.00
2012,08,15,16,23,31.10
2012,08,15,16,24,31.10
2012,08,15,16,25,31.10
2012,08,15,16,26,31.20
2012,08,15,16,27,31.20
2012,08,15,16,28,31.20
2012,08,15,16,29,31.30
2012,08,15,16,30,31.30
2012,08,15,16,31,31.40
2012,08,15,16,32,31.40
2012,08,15,16,33,31.40
2012,08,15,16,34,31.50
2012,08,15,16,35,31.60
2012,08,15,16,36,31.60
2012,08,15,16,37,31.60
2012,08,15,16,38,31.60
2012,08,15,16,39,31.50
2012,08,15,16,40,31.40
2012,08,15,16,41,31.40
2012,08,15,16,42,31.30
2012,08,15,16,43,31.30
2012,08,15,16,44,31.20
2012,08,15,16,45,31.20
2012,08,15,16,46,31.20
2012,08,15,16,47,31.20
2012,08,15,16,48,31.20
2012,08,15,16,49,31.20
2012,08,15,16,50,31.20
2012,08,15,16,51,31.20
2012,08,15,16,52,31.20
2012,08,15,16,53,31.10
2012,08,15,16,54,31.10
2012,08,15,16,55,31.20
2012,08,15,16,56,31.20
2012,08,15,16,57,31.20
2012,08,15,16,58,31.30
2012,08,15,16,59,31.40
2012,08,15,17,00,31.40
2012,08,15,17,01,31.40
2012,08,15,17,02,31.40
2012,08,15,17,03,31.30
2012,08,15,17,04,31.30
2012,08,15,17,05,31.20
2012,08,15,17,06,31.30
2012,08,15,17,07,31.30
2012,08,15,17,08,31.40
2012,08,15,17,09,31.40
2012,08,15,17,10,31.50
2012,08,15,17,11,31.60
2012,08,15,17,12,31.60
2012,08,15,17,13,31.60
2012,08,15,17,14,31.50
2012,08,15,17,15,31.40
2012,08,15,17,16,31.30
2012,08,15,17,17,31.30
2012,08,15,17,18,31.20
2012,08,15,17,19,31.20